Simultaneous Nadir Overpasses (SNOs) Predictions

Prediction of SNOs between GOES-15 and METOP-B Satellite Orbit:

Table of predicted SNOs for the next 14.0 days since TLE Epoch: 1/24/2025
Index Date Time (GOES-15) GOES-15 Lat,Lon METOP-B Lat,Lon Distance(km) Time Diff (sec)
1 01/25/2025 05:06:10 -0.02, 61.55 -0.00, 61.47 9.19 80
2 01/27/2025 17:04:42 0.00, 61.60 0.04, 61.80 22.09 80
3 01/30/2025 05:05:44 -0.00, 61.65 -0.10, 62.17 58.84 80
4 01/31/2025 17:24:52 0.00, 61.67 -0.91, 57.52 473.14 80
5 02/01/2025 17:01:36 -0.00, 61.70 0.18, 62.49 90.18 80
6 02/03/2025 05:20:35 0.00, 61.74 0.83, 57.88 438.93 80
7 02/04/2025 05:02:39 0.00, 61.76 -0.26, 62.85 125.12 80
8 02/05/2025 17:21:45 -0.00, 61.79 -0.78, 58.22 406.56 80
9 02/06/2025 16:58:30 -0.00, 61.82 0.32, 63.19 156.13 80
